Time,TemperatureF,DewpointF,PressureIn,WindDirection,WindDirectionDegrees,WindSpeedMPH,WindSpeedGustMPH,Humidity,HourlyPrecipIn,Conditions,Clouds,dailyrainin,SolarRadiationWatts/m^2,SoftwareType,DateUTC
2013-07-25 00:01:00,65.0,51.6,29.90,NNW,330,0.0,5.0,62,0.00,,,0.00,0,HR-IXPWINDi_r2_v1.2.,2013-07-25 04:01:00,
2013-07-25 00:06:00,64.7,51.3,29.90,NNW,333,0.0,2.0,62,0.00,,,0.00,0,HR-IXPWINDi_r2_v1.2.,2013-07-25 04:06:00,
2013-07-25 00:11:00,64.7,51.3,29.90,SSE,167,0.0,2.0,62,0.00,,,0.00,0,HR-IXPWINDi_r2_v1.2.,2013-07-25 04:11:00,
2013-07-25 00:17:00,64.5,51.1,29.90,West,264,1.0,3.0,62,0.00,,,0.00,0,HR-IXPWINDi_r2_v1.2.,2013-07-25 04:17:00,
2013-07-25 00:22:00,64.3,50.9,29.91,West,265,0.0,3.0,62,0.00,,,0.00,0,HR-IXPWINDi_r2_v1.2.,2013-07-25 04:22:00,
2013-07-25 00:27:00,64.3,51.4,29.91,West,268,1.0,2.0,63,0.00,,,0.00,0,HR-IXPWINDi_r2_v1.2.,2013-07-25 04:27:00,
2013-07-25 00:32:00,64.2,50.9,29.91,NW,326,0.0,6.0,62,0.00,,,0.00,0,HR-IXPWINDi_r2_v1.2.,2013-07-25 04:32:00,
2013-07-25 00:37:00,63.9,51.0,29.91,NNW,330,0.0,6.0,63,0.00,,,0.00,0,HR-IXPWINDi_r2_v1.2.,2013-07-25 04:37:00,
2013-07-25 00:42:00,63.9,51.0,29.91,NNW,347,1.0,3.0,63,0.00,,,0.00,0,HR-IXPWINDi_r2_v1.2.,2013-07-25 04:42:00,
2013-07-25 00:47:00,63.9,51.0,29.91,NNW,328,1.0,4.0,63,0.00,,,0.00,0,HR-IXPWINDi_r2_v1.2.,2013-07-25 04:47:00,
2013-07-25 00:52:00,63.7,51.2,29.91,NNW,333,2.0,4.0,64,0.00,,,0.00,0,HR-IXPWINDi_r2_v1.2.,2013-07-25 04:52:00,
2013-07-25 00:57:00,63.5,51.0,29.91,NNW,333,0.0,4.0,64,0.00,,,0.00,0,HR-IXPWINDi_r2_v1.2.,2013-07-25 04:57:00,
2013-07-25 01:03:00,63.5,51.5,29.91,NNW,333,0.0,2.0,65,0.00,,,0.00,0,HR-IXPWINDi_r2_v1.2.,2013-07-25 05:03:00,
2013-07-25 01:08:00,63.5,51.5,29.91,WNW,289,0.0,3.0,65,0.00,,,0.00,0,HR-IXPWINDi_r2_v1.2.,2013-07-25 05:08:00,
2013-07-25 01:13:00,63.4,51.4,29.91,NW,319,0.0,4.0,65,0.00,,,0.00,0,HR-IXPWINDi_r2_v1.2.,2013-07-25 05:13:00,
2013-07-25 01:18:00,63.2,50.8,29.91,ENE,73,1.0,5.0,64,0.00,,,0.00,0,HR-IXPWINDi_r2_v1.2.,2013-07-25 05:18:00,
2013-07-25 01:23:00,63.2,50.8,29.91,NE,48,1.0,7.0,64,0.00,,,0.00,0,HR-IXPWINDi_r2_v1.2.,2013-07-25 05:23:00,
2013-07-25 01:29:00,63.1,51.1,29.91,North,10,1.0,7.0,65,0.00,,,0.00,0,HR-IXPWINDi_r2_v1.2.,2013-07-25 05:29:00,
2013-07-25 01:34:00,62.9,50.9,29.91,NE,42,0.0,6.0,65,0.00,,,0.00,0,HR-IXPWINDi_r2_v1.2.,2013-07-25 05:34:00,
2013-07-25 01:39:00,62.7,50.7,29.91,NW,319,2.0,5.0,65,0.00,,,0.00,0,HR-IXPWINDi_r2_v1.2.,2013-07-25 05:39:00,
2013-07-25 01:44:00,62.7,51.1,29.91,NNW,328,1.0,5.0,66,0.00,,,0.00,0,HR-IXPWINDi_r2_v1.2.,2013-07-25 05:44:00,
2013-07-25 01:49:00,62.6,51.0,29.91,WSW,248,2.0,3.0,66,0.00,,,0.00,0,HR-IXPWINDi_r2_v1.2.,2013-07-25 05:49:00,
2013-07-25 01:54:00,62.6,51.0,29.91,North,350,0.0,3.0,66,0.00,,,0.00,0,HR-IXPWINDi_r2_v1.2.,2013-07-25 05:54:00,
2013-07-25 01:59:00,62.6,51.0,29.91,NW,323,0.0,3.0,66,0.00,,,0.00,0,HR-IXPWINDi_r2_v1.2.,2013-07-25 05:59:00,
2013-07-25 02:05:00,62.6,51.4,29.91,NW,326,0.0,2.0,67,0.00,,,0.00,0,HR-IXPWINDi_r2_v1.2.,2013-07-25 06:05:00,
2013-07-25 02:10:00,62.6,51.4,29.91,NNW,330,0.0,2.0,67,0.00,,,0.00,0,HR-IXPWINDi_r2_v1.2.,2013-07-25 06:10:00,
2013-07-25 02:15:00,62.6,51.4,29.91,NNW,332,2.0,2.0,67,0.00,,,0.00,0,HR-IXPWINDi_r2_v1.2.,2013-07-25 06:15:00,
2013-07-25 02:20:00,62.4,51.2,29.91,North,352,1.0,2.0,67,0.00,,,0.00,0,HR-IXPWINDi_r2_v1.2.,2013-07-25 06:20:00,
2013-07-25 02:25:00,62.4,51.2,29.91,NNE,31,0.0,3.0,67,0.00,,,0.00,0,HR-IXPWINDi_r2_v1.2.,2013-07-25 06:25:00,
2013-07-25 02:30:00,62.3,51.1,29.91,East,86,0.0,4.0,67,0.00,,,0.00,0,HR-IXPWINDi_r2_v1.2.,2013-07-25 06:30:00,
2013-07-25 02:35:00,62.3,51.1,29.90,North,0,0.0,4.0,67,0.00,,,0.00,0,HR-IXPWINDi_r2_v1.2.,2013-07-25 06:35:00,
2013-07-25 02:40:00,62.3,51.1,29.90,SSE,168,0.0,5.0,67,0.00,,,0.00,0,HR-IXPWINDi_r2_v1.2.,2013-07-25 06:40:00,
2013-07-25 02:45:00,62.3,50.7,29.90,SSE,165,0.0,5.0,66,0.00,,,0.00,0,HR-IXPWINDi_r2_v1.2.,2013-07-25 06:45:00,
2013-07-25 02:51:00,62.3,50.7,29.91,NNW,328,1.0,3.0,66,0.00,,,0.00,0,HR-IXPWINDi_r2_v1.2.,2013-07-25 06:51:00,
2013-07-25 02:56:00,62.3,50.7,29.91,North,349,2.0,3.0,66,0.00,,,0.00,0,HR-IXPWINDi_r2_v1.2.,2013-07-25 06:56:00,
2013-07-25 03:01:00,62.3,50.7,29.91,NNW,346,3.0,5.0,66,0.00,,,0.00,0,HR-IXPWINDi_r2_v1.2.,2013-07-25 07:01:00,
2013-07-25 03:06:00,62.3,50.7,29.90,NNW,337,0.0,5.0,66,0.00,,,0.00,0,HR-IXPWINDi_r2_v1.2.,2013-07-25 07:06:00,
2013-07-25 03:12:00,62.4,50.8,29.90,NNW,337,0.0,3.0,66,0.00,,,0.00,0,HR-IXPWINDi_r2_v1.2.,2013-07-25 07:12:00,
2013-07-25 03:17:00,62.4,51.2,29.90,NW,318,0.0,3.0,67,0.00,,,0.00,0,HR-IXPWINDi_r2_v1.2.,2013-07-25 07:17:00,
2013-07-25 03:22:00,62.3,50.7,29.90,North,7,1.0,5.0,66,0.00,,,0.00,0,HR-IXPWINDi_r2_v1.2.,2013-07-25 07:22:00,
2013-07-25 03:27:00,62.3,50.7,29.90,North,8,0.0,5.0,66,0.00,,,0.00,0,HR-IXPWINDi_r2_v1.2.,2013-07-25 07:27:00,
2013-07-25 03:33:00,62.3,50.7,29.90,North,10,1.0,3.0,66,0.00,,,0.00,0,HR-IXPWINDi_r2_v1.2.,2013-07-25 07:33:00,
2013-07-25 03:38:00,62.3,51.1,29.91,SE,134,1.0,3.0,67,0.00,,,0.00,0,HR-IXPWINDi_r2_v1.2.,2013-07-25 07:38:00,
2013-07-25 03:43:00,62.3,51.1,29.91,SE,130,0.0,3.0,67,0.00,,,0.00,0,HR-IXPWINDi_r2_v1.2.,2013-07-25 07:43:00,
2013-07-25 03:48:00,62.3,51.1,29.91,SE,130,0.0,2.0,67,0.00,,,0.00,0,HR-IXPWINDi_r2_v1.2.,2013-07-25 07:48:00,
2013-07-25 03:53:00,62.3,51.1,29.91,SE,130,2.0,2.0,67,0.00,,,0.00,0,HR-IXPWINDi_r2_v1.2.,2013-07-25 07:53:00,
2013-07-25 03:58:00,62.1,51.0,29.91,NNE,30,0.0,3.0,67,0.00,,,0.00,0,HR-IXPWINDi_r2_v1.2.,2013-07-25 07:58:00,
2013-07-25 04:04:00,62.1,51.0,29.91,North,4,0.0,3.0,67,0.00,,,0.00,0,HR-IXPWINDi_r2_v1.2.,2013-07-25 08:04:00,
2013-07-25 04:09:00,62.1,51.0,29.91,NNW,337,0.0,5.0,67,0.00,,,0.00,0,HR-IXPWINDi_r2_v1.2.,2013-07-25 08:09:00,
2013-07-25 04:14:00,62.1,50.6,29.91,NNE,24,0.0,5.0,66,0.00,,,0.00,0,HR-IXPWINDi_r2_v1.2.,2013-07-25 08:14:00,
2013-07-25 04:19:00,62.1,51.0,29.91,NE,56,0.0,7.0,67,0.00,,,0.00,0,HR-IXPWINDi_r2_v1.2.,2013-07-25 08:19:00,
2013-07-25 04:25:00,62.0,50.9,29.91,NNW,330,0.0,7.0,67,0.00,,,0.00,0,HR-IXPWINDi_r2_v1.2.,2013-07-25 08:25:00,
2013-07-25 04:30:00,62.0,50.5,29.91,North,0,1.0,7.0,66,0.00,,,0.00,0,HR-IXPWINDi_r2_v1.2.,2013-07-25 08:30:00,
2013-07-25 04:35:00,61.8,50.3,29.92,North,359,0.0,7.0,66,0.00,,,0.00,0,HR-IXPWINDi_r2_v1.2.,2013-07-25 08:35:00,
2013-07-25 04:40:00,61.6,50.5,29.92,North,0,0.0,2.0,67,0.00,,,0.00,0,HR-IXPWINDi_r2_v1.2.,2013-07-25 08:40:00,
2013-07-25 04:46:00,61.6,50.1,29.92,North,0,0.0,2.0,66,0.00,,,0.00,0,HR-IXPWINDi_r2_v1.2.,2013-07-25 08:46:00,
2013-07-25 04:51:00,61.5,50.0,29.92,North,0,0.0,2.0,66,0.00,,,0.00,0,HR-IXPWINDi_r2_v1.2.,2013-07-25 08:51:00,
2013-07-25 04:56:00,61.5,50.0,29.92,North,349,0.0,3.0,66,0.00,,,0.00,0,HR-IXPWINDi_r2_v1.2.,2013-07-25 08:56:00,
2013-07-25 05:01:00,61.5,50.0,29.92,NNW,343,2.0,3.0,66,0.00,,,0.00,0,HR-IXPWINDi_r2_v1.2.,2013-07-25 09:01:00,
2013-07-25 05:07:00,61.5,50.0,29.93,NNW,340,0.0,3.0,66,0.00,,,0.00,0,HR-IXPWINDi_r2_v1.2.,2013-07-25 09:07:00,
2013-07-25 05:12:00,61.5,50.0,29.93,NNW,340,2.0,3.0,66,0.00,,,0.00,0,HR-IXPWINDi_r2_v1.2.,2013-07-25 09:12:00,
2013-07-25 05:17:00,61.3,49.8,29.93,NNW,340,0.0,3.0,66,0.00,,,0.00,0,HR-IXPWINDi_r2_v1.2.,2013-07-25 09:17:00,
2013-07-25 05:22:00,61.3,49.8,29.93,NNW,340,0.0,3.0,66,0.00,,,0.00,0,HR-IXPWINDi_r2_v1.2.,2013-07-25 09:22:00,
2013-07-25 05:27:00,61.3,50.2,29.93,NNW,342,0.0,2.0,67,0.00,,,0.00,0,HR-IXPWINDi_r2_v1.2.,2013-07-25 09:27:00,
2013-07-25 05:32:00,61.2,49.7,29.93,NNW,343,0.0,2.0,66,0.00,,,0.00,0,HR-IXPWINDi_r2_v1.2.,2013-07-25 09:32:00,
2013-07-25 05:37:00,61.2,49.3,29.93,ENE,61,0.0,3.0,65,0.00,,,0.00,0,HR-IXPWINDi_r2_v1.2.,2013-07-25 09:37:00,
2013-07-25 05:43:00,61.0,49.1,29.93,NW,326,0.0,5.0,65,0.00,,,0.00,0,HR-IXPWINDi_r2_v1.2.,2013-07-25 09:43:00,
2013-07-25 05:48:00,61.0,49.1,29.93,NNW,332,0.0,5.0,65,0.00,,,0.00,0,HR-IXPWINDi_r2_v1.2.,2013-07-25 09:48:00,
2013-07-25 05:53:00,60.9,48.6,29.93,NW,308,0.0,3.0,64,0.00,,,0.00,0,HR-IXPWINDi_r2_v1.2.,2013-07-25 09:53:00,
2013-07-25 05:59:00,60.7,48.4,29.93,East,83,0.0,3.0,64,0.00,,,0.00,0,HR-IXPWINDi_r2_v1.2.,2013-07-25 09:59:00,
2013-07-25 06:04:00,60.7,48.4,29.93,East,83,0.0,3.0,64,0.00,,,0.00,0,HR-IXPWINDi_r2_v1.2.,2013-07-25 10:04:00,
2013-07-25 06:09:00,60.7,48.4,29.94,North,0,0.0,3.0,64,0.00,,,0.00,0,HR-IXPWINDi_r2_v1.2.,2013-07-25 10:09:00,
2013-07-25 06:14:00,60.5,48.6,29.94,North,0,0.0,3.0,65,0.00,,,0.00,0,HR-IXPWINDi_r2_v1.2.,2013-07-25 10:14:00,
2013-07-25 06:19:00,60.4,48.5,29.94,NNW,329,0.0,5.0,65,0.00,,,0.00,0,HR-IXPWINDi_r2_v1.2.,2013-07-25 10:19:00,
2013-07-25 06:24:00,60.4,48.5,29.94,North,357,0.0,5.0,65,0.00,,,0.00,0,HR-IXPWINDi_r2_v1.2.,2013-07-25 10:24:00,
2013-07-25 06:29:00,60.4,48.9,29.94,North,352,0.0,4.0,66,0.00,,,0.00,0,HR-IXPWINDi_r2_v1.2.,2013-07-25 10:29:00,
2013-07-25 06:34:00,60.4,48.9,29.94,North,352,0.0,4.0,66,0.00,,,0.00,0,HR-IXPWINDi_r2_v1.2.,2013-07-25 10:34:00,
2013-07-25 06:39:00,60.4,49.3,29.94,North,352,0.0,2.0,67,0.00,,,0.00,5,HR-IXPWINDi_r2_v1.2.,2013-07-25 10:39:00,
2013-07-25 06:44:00,60.2,49.1,29.94,NNW,346,0.0,2.0,67,0.00,,,0.00,9,HR-IXPWINDi_r2_v1.2.,2013-07-25 10:44:00,
2013-07-25 06:49:00,60.2,49.1,29.94,NE,45,0.0,3.0,67,0.00,,,0.00,12,HR-IXPWINDi_r2_v1.2.,2013-07-25 10:49:00,
2013-07-25 06:54:00,60.2,49.1,29.94,NW,315,0.0,6.0,67,0.00,,,0.00,12,HR-IXPWINDi_r2_v1.2.,2013-07-25 10:54:00,
2013-07-25 06:59:00,60.2,49.5,29.94,WNW,299,0.0,6.0,68,0.00,,,0.00,19,HR-IXPWINDi_r2_v1.2.,2013-07-25 10:59:00,
2013-07-25 07:05:00,60.2,49.5,29.94,WNW,299,1.0,5.0,68,0.00,,,0.00,21,HR-IXPWINDi_r2_v1.2.,2013-07-25 11:05:00,
2013-07-25 07:10:00,60.1,49.4,29.94,WNW,301,0.0,3.0,68,0.00,,,0.00,21,HR-IXPWINDi_r2_v1.2.,2013-07-25 11:10:00,
2013-07-25 07:15:00,60.2,49.9,29.94,WNW,301,0.0,3.0,69,0.00,,,0.00,19,HR-IXPWINDi_r2_v1.2.,2013-07-25 11:15:00,
2013-07-25 07:20:00,60.2,49.9,29.95,NNW,335,0.0,5.0,69,0.00,,,0.00,28,HR-IXPWINDi_r2_v1.2.,2013-07-25 11:20:00,
2013-07-25 07:25:00,60.1,49.8,29.95,NW,313,0.0,6.0,69,0.00,,,0.00,32,HR-IXPWINDi_r2_v1.2.,2013-07-25 11:25:00,
2013-07-25 07:31:00,60.1,49.8,29.95,NW,323,0.0,6.0,69,0.00,,,0.00,30,HR-IXPWINDi_r2_v1.2.,2013-07-25 11:31:00,
2013-07-25 07:36:00,60.1,50.2,29.96,NW,322,0.0,6.0,70,0.00,,,0.00,23,HR-IXPWINDi_r2_v1.2.,2013-07-25 11:36:00,
2013-07-25 07:41:00,60.1,50.2,29.96,NW,322,1.0,5.0,70,0.00,,,0.00,32,HR-IXPWINDi_r2_v1.2.,2013-07-25 11:41:00,
2013-07-25 07:46:00,60.1,50.2,29.96,WNW,291,0.0,3.0,70,0.00,,,0.00,23,HR-IXPWINDi_r2_v1.2.,2013-07-25 11:46:00,
2013-07-25 07:52:00,60.1,50.6,29.97,WSW,250,2.0,3.0,71,0.00,,,0.00,25,HR-IXPWINDi_r2_v1.2.,2013-07-25 11:52:00,
2013-07-25 07:57:00,60.1,50.2,29.97,West,261,0.0,3.0,70,0.00,,,0.00,26,HR-IXPWINDi_r2_v1.2.,2013-07-25 11:57:00,
2013-07-25 08:02:00,59.9,50.0,29.97,West,267,0.0,3.0,70,0.00,,,0.00,28,HR-IXPWINDi_r2_v1.2.,2013-07-25 12:02:00,
2013-07-25 08:07:00,59.9,50.0,29.97,WNW,289,0.0,5.0,70,0.00,,,0.00,37,HR-IXPWINDi_r2_v1.2.,2013-07-25 12:07:00,
2013-07-25 08:12:00,59.9,50.4,29.97,NNW,339,0.0,5.0,71,0.00,,,0.00,32,HR-IXPWINDi_r2_v1.2.,2013-07-25 12:12:00,
2013-07-25 08:18:00,59.9,50.4,29.97,NW,308,0.0,5.0,71,0.00,,,0.00,32,HR-IXPWINDi_r2_v1.2.,2013-07-25 12:18:00,
2013-07-25 08:23:00,59.9,50.4,29.98,NNW,336,0.0,5.0,71,0.00,,,0.00,39,HR-IXPWINDi_r2_v1.2.,2013-07-25 12:23:00,
2013-07-25 08:28:00,59.9,50.4,29.98,NNW,329,0.0,6.0,71,0.00,,,0.00,65,HR-IXPWINDi_r2_v1.2.,2013-07-25 12:28:00,
2013-07-25 08:33:00,59.9,50.8,29.98,NNW,330,2.0,6.0,72,0.00,,,0.00,60,HR-IXPWINDi_r2_v1.2.,2013-07-25 12:33:00,
2013-07-25 08:38:00,60.1,51.0,29.98,WNW,301,0.0,2.0,72,0.00,,,0.00,65,HR-IXPWINDi_r2_v1.2.,2013-07-25 12:38:00,
2013-07-25 08:43:00,60.1,51.0,29.98,North,352,0.0,3.0,72,0.00,,,0.00,30,HR-IXPWINDi_r2_v1.2.,2013-07-25 12:43:00,
2013-07-25 08:48:00,60.1,51.0,29.98,North,352,0.0,3.0,72,0.00,,,0.00,39,HR-IXPWINDi_r2_v1.2.,2013-07-25 12:48:00,
2013-07-25 08:54:00,60.1,51.0,29.98,West,278,0.0,3.0,72,0.00,,,0.00,53,HR-IXPWINDi_r2_v1.2.,2013-07-25 12:54:00,
2013-07-25 08:59:00,60.1,51.0,29.98,West,280,0.0,3.0,72,0.00,,,0.00,76,HR-IXPWINDi_r2_v1.2.,2013-07-25 12:59:00,
2013-07-25 09:04:00,60.2,51.1,29.98,West,280,0.0,2.0,72,0.00,,,0.00,84,HR-IXPWINDi_r2_v1.2.,2013-07-25 13:04:00,
2013-07-25 09:09:00,60.2,50.7,29.99,West,281,0.0,2.0,71,0.00,,,0.00,74,HR-IXPWINDi_r2_v1.2.,2013-07-25 13:09:00,
2013-07-25 09:15:00,60.4,50.9,29.99,South,185,2.0,2.0,71,0.00,,,0.00,62,HR-IXPWINDi_r2_v1.2.,2013-07-25 13:15:00,
2013-07-25 09:20:00,60.4,50.9,29.99,SSW,205,0.0,2.0,71,0.00,,,0.00,46,HR-IXPWINDi_r2_v1.2.,2013-07-25 13:20:00,
2013-07-25 09:25:00,60.4,51.3,29.99,NW,311,0.0,6.0,72,0.00,,,0.00,53,HR-IXPWINDi_r2_v1.2.,2013-07-25 13:25:00,
2013-07-25 09:30:00,60.2,51.1,29.99,NNW,337,3.0,6.0,72,0.00,,,0.00,95,HR-IXPWINDi_r2_v1.2.,2013-07-25 13:30:00,
2013-07-25 09:35:00,60.2,51.1,29.99,NNW,340,0.0,4.0,72,0.00,,,0.00,95,HR-IXPWINDi_r2_v1.2.,2013-07-25 13:35:00,
2013-07-25 09:40:00,60.4,51.3,29.99,NNW,337,0.0,4.0,72,0.00,,,0.00,128,HR-IXPWINDi_r2_v1.2.,2013-07-25 13:40:00,
2013-07-25 09:45:00,60.7,51.2,29.99,NW,325,3.0,3.0,71,0.00,,,0.00,181,HR-IXPWINDi_r2_v1.2.,2013-07-25 13:45:00,
2013-07-25 09:51:00,61.0,51.5,30.00,NW,325,1.0,3.0,71,0.00,,,0.00,185,HR-IXPWINDi_r2_v1.2.,2013-07-25 13:51:00,
2013-07-25 09:56:00,61.5,52.0,30.00,NW,309,0.0,3.0,71,0.00,,,0.00,179,HR-IXPWINDi_r2_v1.2.,2013-07-25 13:56:00,
2013-07-25 10:01:00,61.8,51.9,30.00,NW,308,2.0,3.0,70,0.00,,,0.00,188,HR-IXPWINDi_r2_v1.2.,2013-07-25 14:01:00,
2013-07-25 10:07:00,62.0,51.7,30.00,NW,309,0.0,3.0,69,0.00,,,0.00,139,HR-IXPWINDi_r2_v1.2.,2013-07-25 14:07:00,
2013-07-25 10:12:00,62.1,52.1,30.00,NW,309,0.0,3.0,70,0.00,,,0.00,190,HR-IXPWINDi_r2_v1.2.,2013-07-25 14:12:00,
2013-07-25 10:17:00,62.3,52.7,30.00,WNW,282,0.0,6.0,71,0.00,,,0.00,185,HR-IXPWINDi_r2_v1.2.,2013-07-25 14:17:00,
2013-07-25 10:22:00,62.4,52.4,30.00,West,281,0.0,6.0,70,0.00,,,0.00,211,HR-IXPWINDi_r2_v1.2.,2013-07-25 14:22:00,
2013-07-25 10:27:00,62.6,52.6,30.00,West,281,0.0,1.0,70,0.00,,,0.00,223,HR-IXPWINDi_r2_v1.2.,2013-07-25 14:27:00,
2013-07-25 10:32:00,62.7,52.3,30.00,West,275,0.0,3.0,69,0.00,,,0.00,264,HR-IXPWINDi_r2_v1.2.,2013-07-25 14:32:00,
2013-07-25 10:37:00,63.1,52.7,29.99,West,274,0.0,3.0,69,0.00,,,0.00,146,HR-IXPWINDi_r2_v1.2.,2013-07-25 14:37:00,
2013-07-25 10:42:00,63.2,52.8,29.99,WNW,298,1.0,3.0,69,0.00,,,0.00,179,HR-IXPWINDi_r2_v1.2.,2013-07-25 14:42:00,
2013-07-25 10:48:00,63.4,53.4,29.99,WNW,298,0.0,3.0,70,0.00,,,0.00,250,HR-IXPWINDi_r2_v1.2.,2013-07-25 14:48:00,
2013-07-25 10:53:00,63.5,53.1,30.00,SSW,206,0.0,7.0,69,0.00,,,0.00,204,HR-IXPWINDi_r2_v1.2.,2013-07-25 14:53:00,
2013-07-25 10:58:00,63.7,53.3,30.00,NNW,328,0.0,7.0,69,0.00,,,0.00,187,HR-IXPWINDi_r2_v1.2.,2013-07-25 14:58:00,
2013-07-25 11:03:00,63.9,53.5,30.00,NNW,328,0.0,4.0,69,0.00,,,0.00,111,HR-IXPWINDi_r2_v1.2.,2013-07-25 15:03:00,
2013-07-25 11:08:00,63.5,53.1,30.00,NNW,329,0.0,1.0,69,0.00,,,0.00,141,HR-IXPWINDi_r2_v1.2.,2013-07-25 15:08:00,
2013-07-25 11:13:00,63.5,53.1,30.00,NNW,329,0.0,0.0,69,0.00,,,0.00,146,HR-IXPWINDi_r2_v1.2.,2013-07-25 15:13:00,
2013-07-25 11:18:00,63.4,53.0,30.00,NNW,339,0.0,2.0,69,0.00,,,0.00,153,HR-IXPWINDi_r2_v1.2.,2013-07-25 15:18:00,
2013-07-25 11:24:00,63.5,53.1,30.00,NNW,339,0.0,2.0,69,0.00,,,0.00,148,HR-IXPWINDi_r2_v1.2.,2013-07-25 15:24:00,
2013-07-25 11:29:00,63.7,53.3,30.00,NNW,339,0.0,1.0,69,0.00,,,0.00,125,HR-IXPWINDi_r2_v1.2.,2013-07-25 15:29:00,
2013-07-25 11:34:00,63.9,53.5,30.00,NNW,339,0.0,0.0,69,0.00,,,0.00,139,HR-IXPWINDi_r2_v1.2.,2013-07-25 15:34:00,
2013-07-25 11:39:00,64.0,53.6,30.00,NNW,339,0.0,1.0,69,0.00,,,0.00,109,HR-IXPWINDi_r2_v1.2.,2013-07-25 15:39:00,
2013-07-25 11:44:00,64.0,53.2,30.00,NNW,337,2.0,2.0,68,0.00,,,0.00,90,HR-IXPWINDi_r2_v1.2.,2013-07-25 15:44:00,
2013-07-25 11:50:00,64.0,53.2,30.02,NNW,336,0.0,2.0,68,0.00,,,0.00,86,HR-IXPWINDi_r2_v1.2.,2013-07-25 15:50:00,
2013-07-25 11:55:00,63.7,52.5,30.02,NNW,337,0.0,2.0,67,0.00,,,0.00,76,HR-IXPWINDi_r2_v1.2.,2013-07-25 15:55:00,
2013-07-25 12:00:00,63.5,51.9,30.02,NNW,337,0.0,2.0,66,0.00,,,0.00,79,HR-IXPWINDi_r2_v1.2.,2013-07-25 16:00:00,
2013-07-25 12:06:00,63.5,52.3,30.02,NNW,337,0.0,1.0,67,0.00,,,0.00,79,HR-IXPWINDi_r2_v1.2.,2013-07-25 16:06:00,
2013-07-25 12:11:00,63.5,52.7,30.02,NNW,337,0.0,2.0,68,0.00,,,0.00,90,HR-IXPWINDi_r2_v1.2.,2013-07-25 16:11:00,
2013-07-25 12:16:00,63.4,52.6,30.02,NNW,337,0.0,2.0,68,0.00,,,0.00,93,HR-IXPWINDi_r2_v1.2.,2013-07-25 16:16:00,
2013-07-25 12:21:00,63.5,52.7,30.02,NNW,337,0.0,2.0,68,0.00,,,0.00,83,HR-IXPWINDi_r2_v1.2.,2013-07-25 16:21:00,
2013-07-25 12:26:00,63.5,52.7,30.02,NNW,337,0.0,0.0,68,0.00,,,0.00,107,HR-IXPWINDi_r2_v1.2.,2013-07-25 16:26:00,
2013-07-25 12:31:00,63.5,53.1,30.02,NNW,337,0.0,0.0,69,0.00,,,0.00,104,HR-IXPWINDi_r2_v1.2.,2013-07-25 16:31:00,
2013-07-25 12:36:00,63.7,53.7,30.02,NNW,337,0.0,0.0,70,0.00,,,0.00,95,HR-IXPWINDi_r2_v1.2.,2013-07-25 16:36:00,
2013-07-25 12:42:00,63.7,53.3,30.02,NNW,335,0.0,0.0,69,0.00,,,0.00,83,HR-IXPWINDi_r2_v1.2.,2013-07-25 16:42:00,
2013-07-25 12:47:00,63.7,53.7,30.02,NW,325,0.0,3.0,70,0.00,,,0.00,81,HR-IXPWINDi_r2_v1.2.,2013-07-25 16:47:00,
2013-07-25 12:52:00,63.7,53.7,30.02,NW,325,0.0,3.0,70,0.00,,,0.00,74,HR-IXPWINDi_r2_v1.2.,2013-07-25 16:52:00,
2013-07-25 12:57:00,63.5,53.5,30.02,NW,325,0.0,2.0,70,0.00,,,0.00,81,HR-IXPWINDi_r2_v1.2.,2013-07-25 16:57:00,
2013-07-25 13:02:00,63.5,53.9,30.02,NW,325,0.0,1.0,71,0.00,,,0.00,99,HR-IXPWINDi_r2_v1.2.,2013-07-25 17:02:00,
2013-07-25 13:07:00,63.5,53.5,30.01,NW,325,0.0,1.0,70,0.00,,,0.00,150,HR-IXPWINDi_r2_v1.2.,2013-07-25 17:07:00,
2013-07-25 13:12:00,63.7,53.7,30.01,NW,320,2.0,2.0,70,0.00,,,0.00,181,HR-IXPWINDi_r2_v1.2.,2013-07-25 17:12:00,
2013-07-25 13:17:00,63.9,53.9,30.01,NW,320,0.0,3.0,70,0.00,,,0.00,116,HR-IXPWINDi_r2_v1.2.,2013-07-25 17:17:00,
2013-07-25 13:23:00,64.0,54.0,30.01,NNW,335,0.0,3.0,70,0.00,,,0.00,83,HR-IXPWINDi_r2_v1.2.,2013-07-25 17:23:00,
2013-07-25 13:28:00,64.0,53.6,30.01,NNW,328,0.0,3.0,69,0.00,,,0.00,69,HR-IXPWINDi_r2_v1.2.,2013-07-25 17:28:00,
2013-07-25 13:33:00,63.9,53.9,30.01,NW,319,0.0,3.0,70,0.00,,,0.00,56,HR-IXPWINDi_r2_v1.2.,2013-07-25 17:33:00,
2013-07-25 13:38:00,63.7,53.7,30.01,NW,318,0.0,3.0,70,0.00,,,0.00,77,HR-IXPWINDi_r2_v1.2.,2013-07-25 17:38:00,
2013-07-25 13:43:00,63.5,53.9,30.01,NW,312,0.0,6.0,71,0.00,,,0.00,109,HR-IXPWINDi_r2_v1.2.,2013-07-25 17:43:00,
2013-07-25 13:49:00,63.7,54.1,30.01,NW,312,0.0,6.0,71,0.00,,,0.00,128,HR-IXPWINDi_r2_v1.2.,2013-07-25 17:49:00,
2013-07-25 13:54:00,63.9,53.9,30.01,NW,312,0.0,0.0,70,0.00,,,0.00,132,HR-IXPWINDi_r2_v1.2.,2013-07-25 17:54:00,
2013-07-25 13:59:00,64.0,54.3,30.01,NW,312,0.0,0.0,71,0.00,,,0.00,128,HR-IXPWINDi_r2_v1.2.,2013-07-25 17:59:00,
2013-07-25 14:04:00,64.2,54.5,30.01,NW,312,1.0,2.0,71,0.00,,,0.00,137,HR-IXPWINDi_r2_v1.2.,2013-07-25 18:04:00,
2013-07-25 14:09:00,64.5,54.4,30.01,NW,311,0.0,2.0,70,0.00,,,0.00,121,HR-IXPWINDi_r2_v1.2.,2013-07-25 18:09:00,
2013-07-25 14:14:00,64.7,54.6,30.01,NW,311,0.0,2.0,70,0.00,,,0.00,100,HR-IXPWINDi_r2_v1.2.,2013-07-25 18:14:00,
2013-07-25 14:19:00,64.8,55.1,30.01,WNW,302,2.0,2.0,71,0.00,,,0.00,111,HR-IXPWINDi_r2_v1.2.,2013-07-25 18:19:00,
2013-07-25 14:25:00,64.7,55.0,30.01,WNW,302,0.0,2.0,71,0.00,,,0.00,123,HR-IXPWINDi_r2_v1.2.,2013-07-25 18:25:00,
2013-07-25 14:30:00,64.8,55.5,30.01,WNW,302,0.0,2.0,72,0.00,,,0.00,155,HR-IXPWINDi_r2_v1.2.,2013-07-25 18:30:00,
2013-07-25 14:35:00,65.0,55.7,30.01,WNW,302,0.0,0.0,72,0.00,,,0.00,165,HR-IXPWINDi_r2_v1.2.,2013-07-25 18:35:00,
2013-07-25 14:40:00,65.2,55.9,30.01,WNW,302,0.0,1.0,72,0.00,,,0.00,158,HR-IXPWINDi_r2_v1.2.,2013-07-25 18:40:00,
2013-07-25 14:45:00,65.3,55.2,30.01,NW,308,1.0,2.0,70,0.00,,,0.00,127,HR-IXPWINDi_r2_v1.2.,2013-07-25 18:45:00,
2013-07-25 14:51:00,65.5,55.4,30.01,NW,308,0.0,2.0,70,0.00,,,0.00,132,HR-IXPWINDi_r2_v1.2.,2013-07-25 18:51:00,
2013-07-25 14:56:00,65.3,55.2,30.01,NW,308,0.0,3.0,70,0.00,,,0.00,95,HR-IXPWINDi_r2_v1.2.,2013-07-25 18:56:00,
2013-07-25 15:01:00,65.3,55.2,30.01,NW,308,0.0,3.0,70,0.00,,,0.00,95,HR-IXPWINDi_r2_v1.2.,2013-07-25 19:01:00,
2013-07-25 15:06:00,65.3,55.6,30.01,NW,312,0.0,3.0,71,0.00,,,0.00,91,HR-IXPWINDi_r2_v1.2.,2013-07-25 19:06:00,
2013-07-25 15:12:00,65.3,55.6,30.01,NW,312,0.0,3.0,71,0.00,,,0.00,99,HR-IXPWINDi_r2_v1.2.,2013-07-25 19:12:00,
2013-07-25 15:17:00,65.3,56.0,30.01,NW,312,0.0,1.0,72,0.00,,,0.00,130,HR-IXPWINDi_r2_v1.2.,2013-07-25 19:17:00,
2013-07-25 15:22:00,65.5,56.6,30.01,NW,312,0.0,0.0,73,0.00,,,0.00,104,HR-IXPWINDi_r2_v1.2.,2013-07-25 19:22:00,
2013-07-25 15:27:00,65.5,56.2,30.01,NW,312,0.0,1.0,72,0.00,,,0.00,90,HR-IXPWINDi_r2_v1.2.,2013-07-25 19:27:00,
2013-07-25 15:32:00,65.5,56.2,30.01,NW,312,1.0,1.0,72,0.00,,,0.00,114,HR-IXPWINDi_r2_v1.2.,2013-07-25 19:32:00,
2013-07-25 15:38:00,65.5,56.2,30.01,NW,312,0.0,2.0,72,0.00,,,0.00,93,HR-IXPWINDi_r2_v1.2.,2013-07-25 19:38:00,
2013-07-25 15:43:00,65.5,56.2,30.01,WNW,299,0.0,3.0,72,0.00,,,0.00,79,HR-IXPWINDi_r2_v1.2.,2013-07-25 19:43:00,
2013-07-25 15:48:00,65.5,56.6,30.01,WNW,299,0.0,3.0,73,0.00,,,0.00,72,HR-IXPWINDi_r2_v1.2.,2013-07-25 19:48:00,
2013-07-25 15:53:00,65.5,56.6,30.00,WNW,299,0.0,1.0,73,0.00,,,0.00,77,HR-IXPWINDi_r2_v1.2.,2013-07-25 19:53:00,
2013-07-25 15:58:00,65.5,56.6,30.00,WNW,296,1.0,2.0,73,0.00,,,0.00,99,HR-IXPWINDi_r2_v1.2.,2013-07-25 19:58:00,
2013-07-25 16:03:00,65.3,56.0,30.00,WNW,298,0.0,2.0,72,0.00,,,0.00,74,HR-IXPWINDi_r2_v1.2.,2013-07-25 20:03:00,
2013-07-25 16:08:00,65.3,56.4,30.01,WNW,298,0.0,1.0,73,0.00,,,0.00,65,HR-IXPWINDi_r2_v1.2.,2013-07-25 20:08:00,
2013-07-25 16:13:00,65.3,56.4,30.01,WNW,301,0.0,2.0,73,0.00,,,0.00,51,HR-IXPWINDi_r2_v1.2.,2013-07-25 20:13:00,
2013-07-25 16:18:00,65.2,55.9,30.01,WNW,301,0.0,2.0,72,0.00,,,0.00,42,HR-IXPWINDi_r2_v1.2.,2013-07-25 20:18:00,
2013-07-25 16:24:00,65.2,56.3,30.01,WNW,301,0.0,2.0,73,0.00,,,0.00,40,HR-IXPWINDi_r2_v1.2.,2013-07-25 20:24:00,
2013-07-25 16:29:00,65.0,56.4,30.01,WNW,302,0.0,2.0,74,0.00,,,0.00,39,HR-IXPWINDi_r2_v1.2.,2013-07-25 20:29:00,
2013-07-25 16:34:00,65.0,56.4,30.01,WNW,302,0.0,2.0,74,0.00,,,0.00,39,HR-IXPWINDi_r2_v1.2.,2013-07-25 20:34:00,
2013-07-25 16:39:00,65.0,56.4,30.01,WNW,302,0.0,2.0,74,0.00,,,0.00,33,HR-IXPWINDi_r2_v1.2.,2013-07-25 20:39:00,
2013-07-25 16:44:00,65.0,56.8,30.01,WNW,302,0.0,0.0,75,0.00,,,0.00,49,HR-IXPWINDi_r2_v1.2.,2013-07-25 20:44:00,
2013-07-25 16:49:00,65.0,56.8,30.01,WNW,302,0.0,2.0,75,0.00,,,0.00,42,HR-IXPWINDi_r2_v1.2.,2013-07-25 20:49:00,
2013-07-25 16:54:00,64.8,56.6,30.01,NW,304,0.0,3.0,75,0.00,,,0.00,37,HR-IXPWINDi_r2_v1.2.,2013-07-25 20:54:00,
2013-07-25 17:00:00,64.8,56.3,30.01,NW,304,0.0,3.0,74,0.00,,,0.00,46,HR-IXPWINDi_r2_v1.2.,2013-07-25 21:00:00,
2013-07-25 17:05:00,64.8,56.3,30.00,NW,304,0.0,2.0,74,0.00,,,0.00,69,HR-IXPWINDi_r2_v1.2.,2013-07-25 21:05:00,
2013-07-25 17:10:00,65.0,56.8,30.00,NW,304,0.0,2.0,75,0.00,,,0.00,60,HR-IXPWINDi_r2_v1.2.,2013-07-25 21:10:00,
2013-07-25 17:16:00,65.0,56.4,30.00,NW,304,0.0,0.0,74,0.00,,,0.00,55,HR-IXPWINDi_r2_v1.2.,2013-07-25 21:16:00,
2013-07-25 17:21:00,65.2,56.6,30.00,NW,304,0.0,0.0,74,0.00,,,0.00,65,HR-IXPWINDi_r2_v1.2.,2013-07-25 21:21:00,
2013-07-25 17:27:00,65.2,57.0,30.00,NW,304,0.0,0.0,75,0.00,,,0.00,74,HR-IXPWINDi_r2_v1.2.,2013-07-25 21:27:00,
2013-07-25 17:32:00,65.3,57.1,30.00,NW,304,0.0,0.0,75,0.00,,,0.00,74,HR-IXPWINDi_r2_v1.2.,2013-07-25 21:32:00,
2013-07-25 17:37:00,65.3,57.1,30.00,NW,304,0.0,0.0,75,0.00,,,0.00,93,HR-IXPWINDi_r2_v1.2.,2013-07-25 21:37:00,
2013-07-25 17:42:00,65.5,57.3,30.00,NW,304,0.0,1.0,75,0.00,,,0.00,74,HR-IXPWINDi_r2_v1.2.,2013-07-25 21:42:00,
2013-07-25 17:47:00,65.6,57.4,30.00,NW,304,0.0,1.0,75,0.00,,,0.00,58,HR-IXPWINDi_r2_v1.2.,2013-07-25 21:47:00,
2013-07-25 17:52:00,65.5,57.3,30.01,NW,304,0.0,0.0,75,0.00,,,0.00,60,HR-IXPWINDi_r2_v1.2.,2013-07-25 21:52:00,
2013-07-25 17:58:00,65.5,56.9,30.01,NW,304,0.0,0.0,74,0.00,,,0.00,46,HR-IXPWINDi_r2_v1.2.,2013-07-25 21:58:00,
2013-07-25 18:03:00,65.6,57.4,30.01,NW,304,0.0,0.0,75,0.00,,,0.00,49,HR-IXPWINDi_r2_v1.2.,2013-07-25 22:03:00,
2013-07-25 18:08:00,65.5,57.3,30.01,NW,304,0.0,0.0,75,0.00,,,0.00,55,HR-IXPWINDi_r2_v1.2.,2013-07-25 22:08:00,
2013-07-25 18:13:00,65.5,57.3,30.01,NW,304,0.0,1.0,75,0.00,,,0.00,51,HR-IXPWINDi_r2_v1.2.,2013-07-25 22:13:00,
2013-07-25 18:18:00,65.5,57.3,30.01,NW,304,0.0,1.0,75,0.00,,,0.00,55,HR-IXPWINDi_r2_v1.2.,2013-07-25 22:18:00,
2013-07-25 18:23:00,65.5,57.7,30.00,NW,304,0.0,0.0,76,0.00,,,0.00,51,HR-IXPWINDi_r2_v1.2.,2013-07-25 22:23:00,
2013-07-25 18:29:00,65.5,57.3,30.00,NW,304,0.0,0.0,75,0.00,,,0.00,44,HR-IXPWINDi_r2_v1.2.,2013-07-25 22:29:00,
2013-07-25 18:34:00,65.5,57.3,30.00,NW,304,0.0,2.0,75,0.00,,,0.00,35,HR-IXPWINDi_r2_v1.2.,2013-07-25 22:34:00,
2013-07-25 18:39:00,65.5,57.3,30.00,NW,304,0.0,2.0,75,0.00,,,0.00,28,HR-IXPWINDi_r2_v1.2.,2013-07-25 22:39:00,
2013-07-25 18:44:00,65.5,57.7,30.00,NW,304,0.0,0.0,76,0.00,,,0.00,23,HR-IXPWINDi_r2_v1.2.,2013-07-25 22:44:00,
2013-07-25 18:49:00,65.5,57.3,30.00,NW,304,0.0,0.0,75,0.00,,,0.00,21,HR-IXPWINDi_r2_v1.2.,2013-07-25 22:49:00,
2013-07-25 18:55:00,65.5,57.7,30.00,NW,304,0.0,0.0,76,0.00,,,0.00,16,HR-IXPWINDi_r2_v1.2.,2013-07-25 22:55:00,
2013-07-25 19:00:00,65.3,57.5,30.00,NW,304,0.0,0.0,76,0.00,,,0.00,11,HR-IXPWINDi_r2_v1.2.,2013-07-25 23:00:00,
2013-07-25 19:05:00,65.3,57.5,30.00,NW,304,0.0,0.0,76,0.00,,,0.00,11,HR-IXPWINDi_r2_v1.2.,2013-07-25 23:05:00,
2013-07-25 19:10:00,65.3,57.5,30.00,NW,304,0.0,0.0,76,0.00,,,0.00,9,HR-IXPWINDi_r2_v1.2.,2013-07-25 23:10:00,
2013-07-25 19:15:00,65.3,57.5,30.00,NW,304,0.0,0.0,76,0.00,,,0.00,9,HR-IXPWINDi_r2_v1.2.,2013-07-25 23:15:00,
2013-07-25 19:20:00,65.2,57.0,30.00,NW,305,0.0,3.0,75,0.00,,,0.00,12,HR-IXPWINDi_r2_v1.2.,2013-07-25 23:20:00,
2013-07-25 19:25:00,65.2,57.4,30.00,NW,305,0.0,3.0,76,0.00,,,0.00,12,HR-IXPWINDi_r2_v1.2.,2013-07-25 23:25:00,
2013-07-25 19:30:00,65.3,57.5,30.00,NW,305,0.0,2.0,76,0.00,,,0.00,9,HR-IXPWINDi_r2_v1.2.,2013-07-25 23:30:00,
2013-07-25 19:36:00,65.3,57.8,30.01,NW,305,0.0,2.0,77,0.00,,,0.00,9,HR-IXPWINDi_r2_v1.2.,2013-07-25 23:36:00,
2013-07-25 19:41:00,65.3,57.8,30.01,NW,305,0.0,0.0,77,0.00,,,0.00,7,HR-IXPWINDi_r2_v1.2.,2013-07-25 23:41:00,
2013-07-25 19:46:00,65.3,57.8,30.01,NW,305,0.0,0.0,77,0.00,,,0.00,9,HR-IXPWINDi_r2_v1.2.,2013-07-25 23:46:00,
2013-07-25 19:52:00,65.3,58.2,30.01,NW,305,0.0,0.0,78,0.00,,,0.00,11,HR-IXPWINDi_r2_v1.2.,2013-07-25 23:52:00,
2013-07-25 19:57:00,65.3,58.2,30.01,NW,305,0.0,0.0,78,0.00,,,0.00,7,HR-IXPWINDi_r2_v1.2.,2013-07-25 23:57:00,
2013-07-25 20:02:00,65.3,58.2,30.01,NW,305,0.0,0.0,78,0.00,,,0.00,0,HR-IXPWINDi_r2_v1.2.,2013-07-26 00:02:00,
2013-07-25 20:07:00,65.3,58.2,30.01,NW,305,0.0,0.0,78,0.00,,,0.00,0,HR-IXPWINDi_r2_v1.2.,2013-07-26 00:07:00,
2013-07-25 20:12:00,65.2,58.1,30.01,NW,305,0.0,0.0,78,0.00,,,0.00,0,HR-IXPWINDi_r2_v1.2.,2013-07-26 00:12:00,
2013-07-25 20:17:00,65.2,58.1,30.01,NW,305,0.0,0.0,78,0.00,,,0.00,0,HR-IXPWINDi_r2_v1.2.,2013-07-26 00:17:00,
2013-07-25 20:22:00,65.2,58.5,30.01,NW,305,0.0,0.0,79,0.00,,,0.00,0,HR-IXPWINDi_r2_v1.2.,2013-07-26 00:22:00,
2013-07-25 20:27:00,65.2,58.5,30.01,NW,305,0.0,0.0,79,0.00,,,0.00,0,HR-IXPWINDi_r2_v1.2.,2013-07-26 00:27:00,
2013-07-25 20:33:00,65.2,58.5,30.01,NW,305,0.0,0.0,79,0.00,,,0.00,0,HR-IXPWINDi_r2_v1.2.,2013-07-26 00:33:00,
2013-07-25 20:38:00,65.0,58.3,30.00,NW,305,0.0,0.0,79,0.00,,,0.00,0,HR-IXPWINDi_r2_v1.2.,2013-07-26 00:38:00,
2013-07-25 20:43:00,65.0,58.3,30.00,NW,305,0.0,0.0,79,0.00,,,0.00,0,HR-IXPWINDi_r2_v1.2.,2013-07-26 00:43:00,
2013-07-25 20:48:00,65.0,58.3,30.00,NW,305,0.0,0.0,79,0.00,,,0.00,0,HR-IXPWINDi_r2_v1.2.,2013-07-26 00:48:00,
2013-07-25 20:54:00,65.0,58.6,30.01,NW,305,0.0,0.0,80,0.00,,,0.00,0,HR-IXPWINDi_r2_v1.2.,2013-07-26 00:54:00,
2013-07-25 20:59:00,65.0,58.6,30.01,NW,305,0.0,0.0,80,0.00,,,0.00,0,HR-IXPWINDi_r2_v1.2.,2013-07-26 00:59:00,
2013-07-25 21:04:00,65.0,58.6,30.01,NW,305,0.0,0.0,80,0.00,,,0.00,0,HR-IXPWINDi_r2_v1.2.,2013-07-26 01:04:00,
2013-07-25 21:09:00,65.0,58.6,30.02,NW,305,0.0,0.0,80,0.00,,,0.00,0,HR-IXPWINDi_r2_v1.2.,2013-07-26 01:09:00,
2013-07-25 21:14:00,64.8,58.4,30.02,NW,305,0.0,0.0,80,0.00,,,0.00,0,HR-IXPWINDi_r2_v1.2.,2013-07-26 01:14:00,
2013-07-25 21:19:00,64.8,58.8,30.02,NW,305,0.0,0.0,81,0.00,,,0.00,0,HR-IXPWINDi_r2_v1.2.,2013-07-26 01:19:00,
2013-07-25 21:24:00,64.8,58.4,30.01,NW,305,0.0,0.0,80,0.00,,,0.00,0,HR-IXPWINDi_r2_v1.2.,2013-07-26 01:24:00,
2013-07-25 21:29:00,64.8,58.4,30.01,NW,305,0.0,0.0,80,0.00,,,0.00,0,HR-IXPWINDi_r2_v1.2.,2013-07-26 01:29:00,
2013-07-25 21:34:00,64.8,58.4,30.00,NW,305,0.0,0.0,80,0.00,,,0.00,0,HR-IXPWINDi_r2_v1.2.,2013-07-26 01:34:00,
2013-07-25 21:40:00,64.8,58.4,30.00,NW,305,0.0,0.0,80,0.00,,,0.00,0,HR-IXPWINDi_r2_v1.2.,2013-07-26 01:40:00,
2013-07-25 21:45:00,64.8,58.4,30.00,NW,305,0.0,0.0,80,0.00,,,0.00,0,HR-IXPWINDi_r2_v1.2.,2013-07-26 01:45:00,
2013-07-25 21:50:00,64.8,58.4,30.01,NW,305,0.0,0.0,80,0.00,,,0.00,0,HR-IXPWINDi_r2_v1.2.,2013-07-26 01:50:00,
2013-07-25 21:55:00,64.8,58.4,30.01,NW,305,0.0,0.0,80,0.00,,,0.00,0,HR-IXPWINDi_r2_v1.2.,2013-07-26 01:55:00,
2013-07-25 22:01:00,64.8,58.1,30.01,NW,305,0.0,0.0,79,0.00,,,0.00,0,HR-IXPWINDi_r2_v1.2.,2013-07-26 02:01:00,
2013-07-25 22:06:00,64.8,58.1,30.00,NW,305,0.0,0.0,79,0.00,,,0.00,0,HR-IXPWINDi_r2_v1.2.,2013-07-26 02:06:00,
2013-07-25 22:11:00,64.8,58.4,30.00,NW,305,0.0,0.0,80,0.00,,,0.00,0,HR-IXPWINDi_r2_v1.2.,2013-07-26 02:11:00,
2013-07-25 22:16:00,64.8,58.4,30.00,NW,305,0.0,0.0,80,0.00,,,0.00,0,HR-IXPWINDi_r2_v1.2.,2013-07-26 02:16:00,
2013-07-25 22:21:00,64.7,58.0,30.01,NW,305,0.0,2.0,79,0.00,,,0.00,0,HR-IXPWINDi_r2_v1.2.,2013-07-26 02:21:00,
2013-07-25 22:27:00,64.5,57.4,30.01,NW,305,0.0,2.0,78,0.00,,,0.00,0,HR-IXPWINDi_r2_v1.2.,2013-07-26 02:27:00,
2013-07-25 22:32:00,64.5,57.4,30.01,NW,305,0.0,2.0,78,0.00,,,0.00,0,HR-IXPWINDi_r2_v1.2.,2013-07-26 02:32:00,
2013-07-25 22:37:00,64.5,57.4,30.01,NW,306,0.0,2.0,78,0.00,,,0.00,0,HR-IXPWINDi_r2_v1.2.,2013-07-26 02:37:00,
2013-07-25 22:42:00,64.5,57.1,30.01,NW,308,1.0,2.0,77,0.00,,,0.00,0,HR-IXPWINDi_r2_v1.2.,2013-07-26 02:42:00,
2013-07-25 22:48:00,64.5,57.1,30.01,NW,308,2.0,2.0,77,0.00,,,0.00,0,HR-IXPWINDi_r2_v1.2.,2013-07-26 02:48:00,
2013-07-25 22:53:00,64.3,56.9,30.01,WNW,298,0.0,3.0,77,0.00,,,0.00,0,HR-IXPWINDi_r2_v1.2.,2013-07-26 02:53:00,
2013-07-25 22:58:00,64.3,56.9,30.01,WNW,298,0.0,3.0,77,0.00,,,0.00,0,HR-IXPWINDi_r2_v1.2.,2013-07-26 02:58:00,
2013-07-25 23:03:00,64.3,56.9,30.01,WNW,298,0.0,1.0,77,0.00,,,0.00,0,HR-IXPWINDi_r2_v1.2.,2013-07-26 03:03:00,
2013-07-25 23:08:00,64.2,57.1,30.00,WNW,299,0.0,2.0,78,0.00,,,0.00,0,HR-IXPWINDi_r2_v1.2.,2013-07-26 03:08:00,
2013-07-25 23:13:00,64.2,57.1,30.00,WNW,299,0.0,2.0,78,0.00,,,0.00,0,HR-IXPWINDi_r2_v1.2.,2013-07-26 03:13:00,
2013-07-25 23:18:00,64.2,57.1,30.00,WNW,299,0.0,1.0,78,0.00,,,0.00,0,HR-IXPWINDi_r2_v1.2.,2013-07-26 03:18:00,
2013-07-25 23:23:00,64.2,57.1,30.01,WNW,299,0.0,1.0,78,0.00,,,0.00,0,HR-IXPWINDi_r2_v1.2.,2013-07-26 03:23:00,
2013-07-25 23:29:00,64.0,56.9,30.01,WNW,299,0.0,1.0,78,0.00,,,0.00,0,HR-IXPWINDi_r2_v1.2.,2013-07-26 03:29:00,
2013-07-25 23:34:00,64.2,57.1,30.01,WNW,299,0.0,1.0,78,0.00,,,0.00,0,HR-IXPWINDi_r2_v1.2.,2013-07-26 03:34:00,
2013-07-25 23:39:00,64.2,57.1,30.01,WNW,299,0.0,0.0,78,0.00,,,0.00,0,HR-IXPWINDi_r2_v1.2.,2013-07-26 03:39:00,
2013-07-25 23:44:00,64.2,57.5,30.01,WNW,299,0.0,0.0,79,0.00,,,0.00,0,HR-IXPWINDi_r2_v1.2.,2013-07-26 03:44:00,
2013-07-25 23:49:00,64.2,57.5,30.01,WNW,299,0.0,0.0,79,0.00,,,0.00,0,HR-IXPWINDi_r2_v1.2.,2013-07-26 03:49:00,
2013-07-25 23:54:00,64.2,57.5,30.01,WNW,299,0.0,0.0,79,0.00,,,0.00,0,HR-IXPWINDi_r2_v1.2.,2013-07-26 03:54:00,